"Pseudo-MPEC" for P11WJPY

Created 2024 Aug 2 14:22:08 UT using Find_Orb

Click here for an explanation of pseudo-MPECs

 
 Astrometry: 
     P11WJPY* C2024 07 31.45623721 17 37.125-06 26 32.40   ~7VDb 21.41wXNEOCPF51
     P11WJPY  C2024 07 31.46897121 17 33.961-06 27 44.40   ~7VDb 21.44wXNEOCPF51
     P11WJPY  C2024 07 31.48170821 17 30.785-06 28 56.38   ~7VDb 20.80wXNEOCPF51
     P11WJPY  C2024 07 31.49441621 17 27.600-06 30 08.41   ~7VDb 20.90wXNEOCPF51
     P11WJPY 3C2024 08 01.46270821 13 39.852-08 08 51.28   ~81Gq 20.63GVNEOCPT14
     P11WJPY 3C2024 08 01.46369221 13 39.565-08 08 57.78   ~81Gq 20.59GVNEOCPT14
     P11WJPY 3C2024 08 01.46467421 13 39.280-08 09 04.22   ~81Gq 20.67GVNEOCPT14
     P11WJPY KB2024 08 02.18688 21 10 26.664-09 33 12.89   ~825b 20.5 RZNEOCPH36
     P11WJPY KB2024 08 02.21022 21 10 19.318-09 36 05.80   ~825b 20.7 RZNEOCPH36
     P11WJPY KB2024 08 02.22648 21 10 14.153-09 38 07.40   ~8267 20.2 GVNEOCP734
     P11WJPY KB2024 08 02.23588 21 10 11.184-09 39 16.88   ~8267 20.0 GVNEOCP734

Station data:
(734) Farpoint Observatory, Eskridge  (N38.890239 W96.002420)  US/Kansas.
   Observer G. Hug. 0.69-m reflector + CCD.
(F51) Pan-STARRS 1, Haleakala  (N20.707234 W156.255910)  US/Hawaii.
   Observers J. Bulger, T. Lowe, A. Schultz, M. Willman. Measurers K.
   Chambers, S. Chastel, T. de Boer, L. Denneau, J. Fairlamb, H. Flewelling,
   M. Huber, C.-C. Lin, E. Magnier, Y. Ramanjooloo, R. Wainscoat, R. Weryk.
   1.8-m Ritchey-Chrétien + CCD.
(H36) Sandlot Observatory, Scranton  (N38.797718 W95.706550)  US/Kansas.
   Observer G. Hug. 0.56-m reflector + CCD.
(T14) Mauna Kea-UH/Tholen NEO Follow-Up (CFHT)  (N19.825252 W155.468876)
   US/Hawaii.  Observer R. Weryk. 3.6-m Canada-France-Hawaii Telescope.

Orbital elements:  P11WJPY
   Perihelion 2024 Oct 21.55249 +/- 0.181 TT = 13:15:35 (JD 2460605.05249)
Epoch 2024 Aug  2.0 TT = JDT 2460524.5   Earth MOID: 0.0322   Ve: 0.0345
M 278.86879087 +/- 0.33             (J2000 ecliptic)             AutoNEOCP
n   1.00718436 +/- 0.00187          Peri.  308.21703 +/- 0.026
a   0.98566665 +/- 0.00122          Node   132.80666 +/- 0.0012
e   0.4545755 +/- 0.00219           Incl.   14.47305 +/- 0.10
P   0.979/357.425d         H 24.93  G  0.15   U  8.5
q 0.53760674 +/- 0.00149    Q 1.43372657 +/- 0.00393
From 11 observations 2024 July 31-Aug. 2 (42.7 hr); mean residual 0".15
Residuals in arcseconds: 
240731 F51  .11-  .12-    240801 T14  .02+  .02+    240802 H36  .07+  .29+    
240731 F51  .05+  .08-    240801 T14  .01-  .02-    240802 734  .26-  .45-    
240731 F51  .11+  .09+    240801 T14  .01-  .00     240802 734  .20+  .02-    
240731 F51  .03-  .12+    240802 H36  .07+  .18+    

Ephemerides (geocentric):
Date (UTC) HH   RA             Dec           delta  r     elong  mag " sig PA
---- --------  ------------   ------------  ------ ------ -----  --- --------
2024 08 02 14  21 08 25.686   -10 22 15.85  .09245 1.1064 171.7 20.5 .356 173
2024 08 02 15  21 08 12.782   -10 27 43.28  .09214 1.1061 171.8 20.5 .363 173
2024 08 02 16  21 07 59.784   -10 33 12.90  .09184 1.1058 171.9 20.5 .369 173
2024 08 02 17  21 07 46.689   -10 38 44.73  .09153 1.1055 172.1 20.5 .375 173
2024 08 02 18  21 07 33.496   -10 44 18.78  .09123 1.1052 172.2 20.5 .382 173
2024 08 02 19  21 07 20.206   -10 49 55.09  .09092 1.1049 172.3 20.5 .389 173
2024 08 02 20  21 07 06.816   -10 55 33.65  .09061 1.1047 172.5 20.4 .396 173
2024 08 02 21  21 06 53.326   -11 01 14.50  .09031 1.1044 172.6 20.4 .403 173
2024 08 02 22  21 06 39.735   -11 06 57.65  .09000 1.1041 172.8 20.4 .410 173
2024 08 02 23  21 06 26.041   -11 12 43.12  .08970 1.1038 172.9 20.4 .418 173
2024 08 03 00  21 06 12.244   -11 18 30.93  .08940 1.1035 173.0 20.4 .426 173
2024 08 03 01  21 05 58.343   -11 24 21.10  .08909 1.1033 173.2 20.4 .434 173
2024 08 03 02  21 05 44.335   -11 30 13.65  .08879 1.1030 173.3 20.4 .442 173
2024 08 03 03  21 05 30.222   -11 36 08.59  .08849 1.1027 173.5 20.3 .450 173
2024 08 03 04  21 05 16.000   -11 42 05.96  .08819 1.1024 173.6 20.3 .459 173
2024 08 03 05  21 05 01.669   -11 48 05.76  .08788 1.1021 173.7 20.3 .468 173
2024 08 03 06  21 04 47.228   -11 54 08.01  .08758 1.1018 173.9 20.3 .477 173
2024 08 03 07  21 04 32.676   -12 00 12.75  .08728 1.1016 174.0 20.3 .486 173
2024 08 03 08  21 04 18.012   -12 06 19.98  .08698 1.1013 174.2 20.3 .496 174
2024 08 03 09  21 04 03.234   -12 12 29.74  .08668 1.1010 174.3 20.3 .506 174
2024 08 03 10  21 03 48.341   -12 18 42.03  .08638 1.1007 174.5 20.2 .516 174
2024 08 03 11  21 03 33.332   -12 24 56.88  .08608 1.1004 174.6 20.2 .526 174
2024 08 03 12  21 03 18.205   -12 31 14.32  .08579 1.1001 174.7 20.2 .537 174
2024 08 03 13  21 03 02.960   -12 37 34.36  .08549 1.0998 174.9 20.2 .548 174
2024 08 03 14  21 02 47.595   -12 43 57.02  .08519 1.0996 175.0 20.2 .559 175
2024 08 03 15  21 02 32.108   -12 50 22.33  .08489 1.0993 175.2 20.2 .570 175
2024 08 03 16  21 02 16.499   -12 56 50.31  .08460 1.0990 175.3 20.2 .582 175
2024 08 03 17  21 02 00.766   -13 03 20.98  .08430 1.0987 175.5 20.1 .594 175
2024 08 03 18  21 01 44.908   -13 09 54.35  .08401 1.0984 175.6 20.1 .607 176
2024 08 03 19  21 01 28.923   -13 16 30.47  .08371 1.0981 175.8 20.1 .620 176
2024 08 03 20  21 01 12.810   -13 23 09.34  .08342 1.0979 175.9 20.1 .633 176
2024 08 03 21  21 00 56.568   -13 29 50.99  .08312 1.0976 176.1 20.1 .646 176
2024 08 03 22  21 00 40.194   -13 36 35.44  .08283 1.0973 176.2 20.1 .660 177
2024 08 03 23  21 00 23.688   -13 43 22.71  .08253 1.0970 176.4 20.0 .674 177
2024 08 04 00  21 00 07.048   -13 50 12.84  .08224 1.0967 176.5 20.0 .689 177
2024 08 04 01  20 59 50.273   -13 57 05.83  .08195 1.0964 176.6 20.0 .704 178
2024 08 04 02  20 59 33.361   -14 04 01.72  .08166 1.0961 176.8 20.0 .719 178
2024 08 04 03  20 59 16.310   -14 11 00.53  .08137 1.0959 176.9 20.0 .735 178
2024 08 04 04  20 58 59.118   -14 18 02.28  .08108 1.0956 177.1 20.0 .751 178
2024 08 04 05  20 58 41.786   -14 25 07.00  .08079 1.0953 177.2 19.9 .768 179
2024 08 04 06  20 58 24.309   -14 32 14.71  .08050 1.0950 177.3 19.9 .785 179
2024 08 04 07  20 58 06.688   -14 39 25.43  .08021 1.0947 177.5 19.9 .802 179
2024 08 04 08  20 57 48.920   -14 46 39.19  .07992 1.0944 177.6 19.9 .820   0
2024 08 04 09  20 57 31.003   -14 53 56.01  .07963 1.0941 177.7 19.9 .839   0
2024 08 04 10  20 57 12.937   -15 01 15.93  .07935 1.0938 177.9 19.9 .857   0
2024 08 04 11  20 56 54.718   -15 08 38.95  .07906 1.0936 178.0 19.8 .877   1
2024 08 04 12  20 56 36.346   -15 16 05.12  .07877 1.0933 178.1 19.8 .897   1
2024 08 04 13  20 56 17.818   -15 23 34.45  .07849 1.0930 178.2 19.8 .917   1